Fredericksburg, VA

4:30 AM EST on December 07, 2019 (GMT -0500)
Shannon

Weather History for KEZF - October, 2019

Change the Weather History Date:

Wednesday, October 30, 2019

  Actual Average (KNYG) Record (KNYG)
Temperature  
Mean Temperature 60 °F -  
Max Temperature 65 °F 61 °F 82 °F (1996)
Min Temperature 54 °F 42 °F 30 °F (2008)
Degree Days  
Heating Degree Days 6    
Growing Degree Days 10 (Base 50)    
Moisture  
Dew Point 59 °F    
Average Humidity 97    
Maximum Humidity 100    
Minimum Humidity 85    
Precipitation  
Precipitation 0.00 in - - ()
Sea Level Pressure  
Sea Level Pressure 30.20 in    
Wind  
Wind Speed 1 mph ()    
Max Wind Speed 6 mph    
Max Gust Speed -    
Visibility 9.6 miles    
Events Rain    
Averages and records for this station are not official NWS values.
T = Trace of Precipitation, MM = Missing Value Source: Averaged Metar Reports

Daily Weather History Graph

Daily Weather History Graph

Search for Another Location

Airport or City:

Astronomy

Oct. 30, 2019 Rise Set
Actual Time 7:33 AM EDT 6:12 PM EDT
Civil Twilight 7:06 AM EDT 6:40 PM EDT
Nautical Twilight 6:35 AM EDT 7:11 PM EDT
Astronomical Twilight 6:04 AM EDT 7:41 PM EDT
Moon 10:12 AM EDT (10/30) 8:21 PM EDT (10/30)
Length of Visible Light 11h 33m
Length of Day
10h 39m
Waxing Crescent, 8% of the Moon is Illuminated
Oct 30
Waxing Crescent
Nov 4
First Quarter
Nov 12
Full
Nov 19
Last Quarter
Nov 26
New

Hourly Weather History & Observations

Time (EDT) Temp. Dew Point Humidity Pressure Visibility Wind Dir Wind Speed Gust Speed Precip Events Conditions
12:15 AM 54.1 °F 54.1 °F 100% 30.26 in 7.0 mi Calm Calm - N/A   Mostly Cloudy
12:35 AM 54.7 °F 54.7 °F 100% 30.25 in 10.0 mi Calm Calm - N/A   Overcast
12:55 AM 55.4 °F 55.4 °F 100% 30.26 in 10.0 mi Calm Calm - N/A   Overcast
1:15 AM 55.9 °F 55.9 °F 100% 30.25 in 10.0 mi Calm Calm - N/A   Overcast
1:35 AM 55.9 °F 55.9 °F 100% 30.25 in 10.0 mi Calm Calm - N/A   Overcast
1:55 AM 56.3 °F 56.3 °F 100% 30.25 in 10.0 mi Calm Calm - N/A   Overcast
2:15 AM 55.9 °F 55.9 °F 100% 30.24 in 10.0 mi Calm Calm - N/A   Overcast
2:35 AM 56.3 °F 56.3 °F 100% 30.24 in 10.0 mi Calm Calm - N/A   Overcast
2:55 AM 56.3 °F 56.3 °F 100% 30.24 in 10.0 mi Calm Calm - N/A   Overcast
3:15 AM 56.3 °F 56.3 °F 100% 30.24 in 10.0 mi Calm Calm - N/A   Overcast
3:35 AM 56.5 °F 56.5 °F 100% 30.24 in 10.0 mi Calm Calm - N/A   Overcast
3:55 AM 56.7 °F 56.7 °F 100% 30.24 in 10.0 mi Calm Calm - N/A   Overcast
4:15 AM 56.7 °F 56.7 °F 100% 30.24 in 10.0 mi Calm Calm - N/A   Overcast
4:35 AM 57.0 °F 57.0 °F 100% 30.24 in 10.0 mi Calm Calm - N/A   Overcast
4:55 AM 57.0 °F 57.0 °F 100% 30.24 in 10.0 mi Calm Calm - N/A   Overcast
5:15 AM 56.8 °F 56.8 °F 100% 30.24 in 10.0 mi Calm Calm - N/A   Overcast
5:35 AM 56.8 °F 56.8 °F 100% 30.25 in 10.0 mi Calm Calm - N/A   Overcast
5:55 AM 57.2 °F 57.2 °F 100% 30.25 in 10.0 mi Calm Calm - N/A   Overcast
6:15 AM 57.2 °F 57.2 °F 100% 30.25 in 10.0 mi Calm Calm - N/A   Overcast
6:35 AM 56.3 °F 56.3 °F 100% 30.24 in 10.0 mi Calm Calm - N/A   Mostly Cloudy
6:55 AM 55.8 °F 55.8 °F 100% 30.24 in 10.0 mi Calm Calm - N/A   Scattered Clouds
7:15 AM 55.9 °F 55.9 °F 100% 30.25 in 10.0 mi Calm Calm - N/A   Overcast
7:35 AM 56.3 °F 56.3 °F 100% 30.26 in 10.0 mi Calm Calm - N/A   Overcast
7:55 AM 56.7 °F 56.7 °F 100% 30.26 in 10.0 mi Calm Calm - N/A   Overcast
8:15 AM 57.4 °F 57.4 °F 100% 30.27 in 10.0 mi Calm Calm - N/A   Overcast
8:35 AM 58.1 °F 58.1 °F 100% 30.27 in 10.0 mi Calm Calm - N/A   Overcast
8:55 AM 58.3 °F 58.1 °F 99% 30.27 in 10.0 mi Calm Calm - N/A   Overcast
9:15 AM 59.0 °F 58.3 °F 97% 30.27 in 10.0 mi Calm Calm - N/A   Overcast
9:35 AM 59.4 °F 58.6 °F 97% 30.27 in 10.0 mi Calm Calm - N/A   Overcast
9:55 AM 59.9 °F 58.6 °F 96% 30.28 in 10.0 mi Calm Calm - N/A   Overcast
10:15 AM 60.4 °F 59.0 °F 95% 30.27 in 10.0 mi Calm Calm - N/A   Overcast
10:35 AM 61.2 °F 59.4 °F 94% 30.27 in 10.0 mi Calm Calm - N/A   Overcast
10:55 AM 61.7 °F 59.9 °F 94% 30.27 in 10.0 mi Calm Calm - N/A   Overcast
11:15 AM 62.6 °F 60.1 °F 91% 30.26 in 10.0 mi Calm Calm - N/A   Overcast
11:35 AM 62.4 °F 60.1 °F 92% 30.25 in 10.0 mi Calm Calm - N/A   Overcast
11:55 AM 62.6 °F 60.1 °F 91% 30.24 in 10.0 mi Calm Calm - N/A   Overcast
12:15 PM 63.5 °F 60.3 °F 89% 30.24 in 10.0 mi Calm Calm - N/A   Overcast
12:35 PM 63.9 °F 60.6 °F 89% 30.23 in 10.0 mi Calm Calm - N/A   Overcast
12:55 PM 64.4 °F 60.4 °F 87% 30.22 in 10.0 mi Calm Calm - N/A   Mostly Cloudy
1:15 PM 64.4 °F 60.8 °F 88% 30.21 in 10.0 mi Calm Calm - N/A   Scattered Clouds
1:35 PM 65.3 °F 60.8 °F 85% 30.20 in 10.0 mi ESE 3.5 mph - N/A   Scattered Clouds
1:55 PM 65.3 °F 60.8 °F 85% 30.19 in 10.0 mi East 3.5 mph - N/A   Scattered Clouds
2:35 PM 65.7 °F 61.0 °F 85% 30.17 in 10.0 mi Calm Calm - N/A   Overcast
3:15 PM 64.9 °F 61.7 °F 89% 30.17 in 10.0 mi Calm Calm - N/A   Light Drizzle
3:35 PM 64.9 °F 62.1 °F 90% 30.17 in 10.0 mi Calm Calm - N/A   Drizzle
3:55 PM 64.4 °F 62.6 °F 94% 30.16 in 10.0 mi Calm Calm - N/A Rain Rain
4:15 PM 63.7 °F 62.6 °F 96% 30.16 in 10.0 mi ESE 3.5 mph - N/A Rain Light Rain
4:35 PM 63.3 °F 62.6 °F 97% 30.16 in 10.0 mi ESE 3.5 mph - N/A   Drizzle
4:55 PM 62.8 °F 62.4 °F 99% 30.16 in 10.0 mi Calm Calm - N/A   Drizzle
5:15 PM 62.6 °F 62.4 °F 99% 30.15 in 10.0 mi East 4.6 mph - N/A   Light Drizzle
5:35 PM 62.6 °F 62.6 °F 100% 30.14 in 10.0 mi ESE 3.5 mph - N/A   Drizzle
5:55 PM 62.6 °F 62.6 °F 100% 30.14 in 10.0 mi Calm Calm - N/A   Drizzle
6:15 PM 62.2 °F 62.2 °F 100% 30.13 in 10.0 mi ESE 3.5 mph - N/A Rain Light Rain
6:35 PM 62.1 °F 62.1 °F 100% 30.14 in 10.0 mi Calm Calm - N/A   Drizzle
6:55 PM 61.9 °F 61.9 °F 100% 30.13 in 7.0 mi Calm Calm - N/A   Drizzle
7:15 PM 61.9 °F 61.9 °F 100% 30.12 in 5.0 mi East 3.5 mph - N/A Rain Rain
7:35 PM 61.7 °F 61.7 °F 100% 30.12 in 7.0 mi ESE 3.5 mph - N/A Rain Light Rain
7:55 PM 61.9 °F 61.9 °F 100% 30.12 in 7.0 mi ESE 3.5 mph - N/A   Drizzle
8:15 PM 61.7 °F 61.7 °F 100% 30.11 in 10.0 mi ESE 4.6 mph - N/A   Overcast
8:35 PM 61.7 °F 61.7 °F 100% 30.10 in 10.0 mi SE 5.8 mph - N/A   Overcast
8:55 PM 61.7 °F 61.7 °F 100% 30.10 in 10.0 mi SE 5.8 mph - N/A   Light Drizzle
9:15 PM 61.7 °F 61.7 °F 100% 30.10 in 10.0 mi Calm Calm - N/A Rain Light Rain
9:35 PM 61.3 °F 61.3 °F 100% 30.10 in 7.0 mi SE 4.6 mph - N/A Rain Rain
9:55 PM 61.2 °F 61.2 °F 100% 30.10 in 10.0 mi SE 3.5 mph - N/A   Overcast
10:15 PM 61.3 °F 61.3 °F 100% 30.09 in 7.0 mi ESE 4.6 mph - N/A Rain Light Rain
10:35 PM 61.3 °F 61.3 °F 100% 30.07 in 7.0 mi ESE 5.8 mph - N/A   Drizzle
10:55 PM 61.7 °F 61.7 °F 100% 30.08 in 10.0 mi SE 4.6 mph - N/A   Light Drizzle
11:15 PM 61.9 °F 61.9 °F 100% 30.07 in 10.0 mi SE 4.6 mph - N/A Rain Rain
11:35 PM 61.7 °F 61.7 °F 100% 30.05 in 10.0 mi SE 5.8 mph - N/A   Overcast
11:55 PM 62.1 °F 62.1 °F 100% 30.04 in 10.0 mi SE 5.8 mph - N/A   Overcast